The Dalles, WA

6:28 AM PDT on July 18, 2019 (GMT -0700)
Columbia Gorge Regional-The Dalles

Weather History for KDLS - May, 2019

Change the Weather History Date:

Thursday, May 2, 2019

  Actual Average Record
Temperature  
Mean Temperature 55 °F -  
Max Temperature 64 °F 71 °F 91 °F (2016)
Min Temperature 46 °F 46 °F 32 °F (1952)
Degree Days  
Heating Degree Days 10    
Growing Degree Days 5 (Base 50)    
Moisture  
Dew Point 34 °F    
Average Humidity 45    
Maximum Humidity 63    
Minimum Humidity 33    
Precipitation  
Precipitation 0.00 in - - ()
Sea Level Pressure  
Sea Level Pressure 30.07 in    
Wind  
Wind Speed 16 mph (WNW)    
Max Wind Speed 22 mph    
Max Gust Speed 30 mph    
Visibility 10 miles    
Events      
Averages and records for this station are not official NWS values.
T = Trace of Precipitation, MM = Missing Value Source: NWS Daily Summary

Daily Weather History Graph

Daily Weather History Graph

Search for Another Location

Airport or City:

Astronomy

May. 02, 2019 Rise Set
Actual Time 5:51 AM PDT 8:12 PM PDT
Civil Twilight 5:18 AM PDT 8:46 PM PDT
Nautical Twilight 4:37 AM PDT 9:27 PM PDT
Astronomical Twilight 3:51 AM PDT 10:13 PM PDT
Moon 5:18 AM PDT (5/2) 5:55 PM PDT (5/2)
Length of Visible Light 15h 27m
Length of Day
14h 21m
Waning Crescent, 5% of the Moon is Illuminated
May 2
Waning Crescent
May 4
New
May 11
First Quarter
May 18
Full
May 26
Last Quarter

Hourly Weather History & Observations

Time (PDT) Temp. Windchill Dew Point Humidity Pressure Visibility Wind Dir Wind Speed Gust Speed Precip Events Conditions
12:53 AM 51.1 °F - 28.0 °F 41% 30.03 in 10.0 mi West 13.8 mph - N/A   Clear
1:53 AM 50.0 °F - 28.9 °F 44% 30.04 in 10.0 mi NW 17.3 mph - N/A   Clear
2:53 AM 48.9 °F - 30.9 °F 50% 30.05 in 10.0 mi NW 15.0 mph - N/A   Clear
3:53 AM 46.9 °F - 34.0 °F 61% 30.07 in 10.0 mi NW 15.0 mph - N/A   Clear
4:53 AM 46.0 °F 41.0 °F 34.0 °F 63% 30.09 in 10.0 mi NW 10.4 mph 20.7 mph N/A   Clear
5:53 AM 46.0 °F 39.0 °F 33.1 °F 61% 30.09 in 10.0 mi NW 17.3 mph - N/A   Clear
6:53 AM 48.0 °F - 33.1 °F 56% 30.10 in 10.0 mi West 11.5 mph - N/A   Clear
7:53 AM 51.1 °F - 34.0 °F 52% 30.12 in 10.0 mi West 16.1 mph - N/A   Clear
8:53 AM 53.1 °F - 34.0 °F 48% 30.12 in 10.0 mi NW 18.4 mph 25.3 mph N/A   Partly Cloudy
9:53 AM 55.0 °F - 34.0 °F 45% 30.13 in 10.0 mi NW 21.9 mph 25.3 mph N/A   Clear
10:53 AM 57.0 °F - 33.1 °F 40% 30.12 in 10.0 mi NW 18.4 mph 27.6 mph N/A   Clear
11:53 AM 60.1 °F - 34.0 °F 38% 30.12 in 10.0 mi WNW 16.1 mph 27.6 mph N/A   Clear
12:53 PM 61.0 °F - 35.1 °F 38% 30.10 in 10.0 mi NW 18.4 mph 26.5 mph N/A   Clear
1:53 PM 62.1 °F - 35.1 °F 37% 30.09 in 10.0 mi WNW 20.7 mph - N/A   Clear
2:53 PM 63.0 °F - 34.0 °F 34% 30.07 in 10.0 mi WNW 21.9 mph 29.9 mph N/A   Clear
3:53 PM 64.9 °F - 35.1 °F 33% 30.05 in 10.0 mi WNW 20.7 mph 29.9 mph N/A   Clear
4:53 PM 64.9 °F - 35.1 °F 33% 30.04 in 10.0 mi NW 20.7 mph 27.6 mph N/A   Clear
5:53 PM 64.0 °F - 35.1 °F 34% 30.03 in 10.0 mi WNW 17.3 mph 26.5 mph N/A   Clear
6:53 PM 63.0 °F - 35.1 °F 35% 30.02 in 10.0 mi West 20.7 mph 25.3 mph N/A   Clear
7:53 PM 61.0 °F - 35.1 °F 38% 30.02 in 10.0 mi West 17.3 mph - N/A   Clear
8:53 PM 59.0 °F - 36.0 °F 42% 30.04 in 10.0 mi WNW 15.0 mph - N/A   Clear
9:53 PM 55.9 °F - 36.0 °F 47% 30.06 in 10.0 mi WNW 8.1 mph - N/A   Clear
10:53 PM 54.0 °F - 37.0 °F 53% 30.06 in 10.0 mi NW 9.2 mph - N/A   Clear
11:53 PM 55.9 °F - 36.0 °F 47% 30.06 in 10.0 mi NW 12.7 mph - N/A   Clear